Cloud_Cover
100 100 100 100 100 100 100 100 100 100 100 100 99 26 13 17 6 10 0 0 0 0 0 5 100 60 100 100 100 100 100 100 100 100 100 100 100 97 100 95 45 24 80 24 48
100 100 100 100 100 100 100 100 100 100 100 100 100 100 33 13 56 0 0 0 0 0 5 2 26 91 100 98 100 99 100 100 100 100 100 100 100 100 100 100 91 80 46 14 95
100 100 100 100 100 100 100 100 100 100 100 100 100 100 18 47 18 0 0 0 0 0 3 5 23 100 100 100 47 100 100 100 100 100 100 100 100 100 100 100 69 38 49 48 6
100 100 100 100 100 100 100 100 100 100 100 100 100 75 1 45 0 0 0 0 0 0 2 5 5 93 100 100 100 100 100 100 100 100 90 100 100 100 100 100 58 5 38 11 4
100 100 100 100 100 100 100 100 100 100 100 100 98 19 1 0 0 0 0 0 0 0 2 6 5 93 100 100 100 100 100 100 100 100 100 100 100 100 100 100 55 75 15 4 4
100 100 100 100 100 100 100 100 100 100 100 100 100 55 3 0 0 0 0 0 0 0 0 6 33 8 100 100 100 100 100 100 100 100 100 99 100 100 100 91 73 16 6 4 0
100 100 100 100 100 100 100 100 100 100 100 100 81 46 0 0 0 0 0 0 0 0 0 5 5 5 30 100 100 100 100 100 100 100 100 100 100 100 100 100 54 72 5 4 1
100 100 100 100 94 100 92 52 100 100 100 100 8 2 0 0 0 0 0 0 0 0 0 0 5 5 48 98 100 100 100 100 100 100 100 100 100 100 100 100 57 59 5 5 0
100 100 100 100 100 99 54 27 36 100 100 88 4 0 0 0 0 0 0 0 0 0 0 0 1 5 1 90 100 100 100 100 100 100 100 100 100 100 100 100 82 86 72 40 1
100 100 100 100 100 100 50 1 0 39 32 0 0 0 0 0 0 0 0 0 0 0 0 0 2 1 5 6 52 31 100 100 100 100 100 98 100 100 100 100 76 100 100 5 5
100 100 100 100 100 100 13 0 0 0 0 0 0 0 0 0 0 0 0 0 0 0 0 0 0 2 7 5 5 5 100 100 100 100 100 100 100 100 100 100 98 66 96 4 77
100 100 100 100 100 100 46 0 0 0 0 0 0 0 0 0 0 0 0 0 0 0 0 0 0 0 5 39 5 5 100 100 100 100 100 100 100 100 100 100 100 97 71 19 97
68 100 100 100 100 84 12 5 0 2 0 0 1 0 0 0 0 0 4 0 0 0 0 0 0 0 0 40 75 90 25 100 100 100 100 100 100 100 100 100 99 100 97 51 19
36 48 100 100 65 100 100 99 94 95 6 1 10 5 5 4 3 5 20 2 0 0 0 0 0 0 0 18 27 95 96 52 100 100 100 100 100 100 100 100 100 100 96 98 8
6 100 100 96 99 100 100 100 100 100 92 5 57 100 6 37 55 21 98 12 0 0 0 0 0 0 0 0 2 74 83 71 98 100 100 100 100 99 99 100 99 97 100 68 12
6 84 100 100 100 100 100 100 100 100 100 5 12 98 69 5 98 90 5 100 1 0 0 0 0 0 0 0 0 21 39 88 70 100 100 100 90 97 84 99 100 88 100 98 86
36 100 95 96 100 100 100 100 100 100 100 38 1 15 74 73 6 100 100 92 16 0 0 0 0 0 0 0 0 5 88 52 59 93 100 100 100 13 48 94 95 100 100 67 100
97 55 19 56 89 100 100 100 100 100 100 100 57 1 0 62 13 16 94 100 66 3 0 0 0 0 0 0 0 0 5 5 5 10 85 100 100 100 100 90 100 90 100 92 91
9 4 4 5 6 23 98 88 92 100 100 100 70 10 4 2 6 28 4 86 100 11 4 0 0 0 0 0 0 0 0 2 7 33 35 94 100 100 91 100 99 100 100 100 84
5 2 0 5 30 50 21 80 100 89 46 16 5 5 1 7 3 5 15 4 93 100 100 43 0 0 0 0 0 0 0 0 2 5 5 29 95 100 100 100 100 100 100 100 100
0 0 0 29 34 8 45 61 30 19 5 6 1 0 0 0 68 5 60 39 4 99 100 100 56 0 0 0 0 0 0 0 0 0 0 6 1 86 100 100 100 100 100 100 100
0 0 0 61 40 100 100 97 5 5 3 0 4 5 22 4 28 66 14 10 40 12 100 100 100 84 4 0 0 0 0 0 0 0 0 0 0 15 100 100 100 100 100 99 100
0 0 34 19 11 5 50 5 0 0 0 0 5 17 100 98 46 22 77 85 96 96 68 100 100 100 96 12 4 0 0 0 0 0 0 0 2 100 100 98 100 100 100 100 100
0 1 8 97 52 21 5 5 0 0 1 0 0 5 70 27 5 25 12 98 18 93 10 100 100 100 100 100 19 1 0 0 0 0 0 0 84 100 100 100 100 100 100 100 100
4 53 6 100 95 29 37 5 0 0 0 0 5 5 17 97 92 26 90 63 32 65 44 91 100 100 100 100 100 82 4 0 0 0 0 0 5 41 100 100 100 100 100 100 100
7 88 76 14 9 6 6 5 5 0 0 0 55 5 5 9 100 100 100 98 50 100 100 100 100 100 100 54 97 100 98 4 0 0 0 0 16 0 100 100 100 100 100 100 100
5 87 6 100 100 72 82 5 0 4 5 5 6 78 8 85 79 86 72 70 93 91 82 94 100 100 66 73 63 97 100 68 5 0 0 3 0 8 100 100 100 95 91 100 100